owner,sensor,date,latitude,longitude,sea_surface_height_above_sea_level,qcFlag 
COMPS,ioos:station:USF.COMPS:ANM:1,2011-07-01T00:00:00Z,27.5400,-82.7400,-0.499,1111122 
COMPS,ioos:station:USF.COMPS:ANM:1,2011-07-01T00:06:00Z,27.5400,-82.7400,-0.481,1111122 
COMPS,ioos:station:USF.COMPS:ANM:1,2011-07-01T00:12:00Z,27.5400,-82.7400,-0.47,1111122 
COMPS,ioos:station:USF.COMPS:ANM:1,2011-07-01T00:18:00Z,27.5400,-82.7400,-0.457,1111122 
COMPS,ioos:station:USF.COMPS:ANM:1,2011-07-01T00:24:00Z,27.5400,-82.7400,-0.444,1111122 
COMPS,ioos:station:USF.COMPS:ANM:1,2011-07-01T00:30:00Z,27.5400,-82.7400,-0.433,1111122 
COMPS,ioos:station:USF.COMPS:ANM:1,2011-07-01T00:36:00Z,27.5400,-82.7400,-0.426,1111122 
COMPS,ioos:station:USF.COMPS:ANM:1,2011-07-01T00:42:00Z,27.5400,-82.7400,-0.414,1111122 
COMPS,ioos:station:USF.COMPS:ANM:1,2011-07-01T00:48:00Z,27.5400,-82.7400,-0.404,1111122 
COMPS,ioos:station:USF.COMPS:ANM:1,2011-07-01T00:54:00Z,27.5400,-82.7400,-0.397,1111122 
COMPS,ioos:station:USF.COMPS:ANM:1,2011-07-01T01:00:00Z,27.5400,-82.7400,-0.382,1111122 
COMPS,ioos:station:USF.COMPS:ANM:1,2011-07-01T01:06:00Z,27.5400,-82.7400,-0.37,1111122 
COMPS,ioos:station:USF.COMPS:ANM:1,2011-07-01T01:12:00Z,27.5400,-82.7400,-0.36,1111122 
COMPS,ioos:station:USF.COMPS:ANM:1,2011-07-01T01:18:00Z,27.5400,-82.7400,-0.344,1111122 
COMPS,ioos:station:USF.COMPS:ANM:1,2011-07-01T01:24:00Z,27.5400,-82.7400,-0.344,1111122 
COMPS,ioos:station:USF.COMPS:ANM:1,2011-07-01T01:30:00Z,27.5400,-82.7400,-0.336,1111122 
COMPS,ioos:station:USF.COMPS:ANM:1,2011-07-01T01:36:00Z,27.5400,-82.7400,-0.322,1111122 
COMPS,ioos:station:USF.COMPS:ANM:1,2011-07-01T01:42:00Z,27.5400,-82.7400,-0.302,1111122 
COMPS,ioos:station:USF.COMPS:ANM:1,2011-07-01T01:48:00Z,27.5400,-82.7400,-0.298,1111122 
COMPS,ioos:station:USF.COMPS:ANM:1,2011-07-01T01:54:00Z,27.5400,-82.7400,-0.286,1111122 
COMPS,ioos:station:USF.COMPS:ANM:1,2011-07-01T02:00:00Z,27.5400,-82.7400,-0.265,1111122 
COMPS,ioos:station:USF.COMPS:ANM:1,2011-07-01T02:06:00Z,27.5400,-82.7400,-0.261,1111122 
COMPS,ioos:station:USF.COMPS:ANM:1,2011-07-01T02:12:00Z,27.5400,-82.7400,-0.249,1111122 
COMPS,ioos:station:USF.COMPS:ANM:1,2011-07-01T02:18:00Z,27.5400,-82.7400,-0.231,1111122 
COMPS,ioos:station:USF.COMPS:ANM:1,2011-07-01T02:24:00Z,27.5400,-82.7400,-0.237,1111122 
COMPS,ioos:station:USF.COMPS:ANM:1,2011-07-01T02:30:00Z,27.5400,-82.7400,-0.209,1111122 
COMPS,ioos:station:USF.COMPS:ANM:1,2011-07-01T02:36:00Z,27.5400,-82.7400,-0.195,1111122 
COMPS,ioos:station:USF.COMPS:ANM:1,2011-07-01T02:42:00Z,27.5400,-82.7400,-0.18,1111122 
COMPS,ioos:station:USF.COMPS:ANM:1,2011-07-01T02:48:00Z,27.5400,-82.7400,-0.176,1111122 
COMPS,ioos:station:USF.COMPS:ANM:1,2011-07-01T02:54:00Z,27.5400,-82.7400,-0.169,1111122 
COMPS,ioos:station:USF.COMPS:ANM:1,2011-07-01T03:00:00Z,27.5400,-82.7400,-0.166,1111122 
COMPS,ioos:station:USF.COMPS:ANM:1,2011-07-01T03:06:00Z,27.5400,-82.7400,-0.154,1111122 
COMPS,ioos:station:USF.COMPS:ANM:1,2011-07-01T03:12:00Z,27.5400,-82.7400,-0.145,1111122 
COMPS,ioos:station:USF.COMPS:ANM:1,2011-07-01T03:18:00Z,27.5400,-82.7400,-0.139,1111122 
COMPS,ioos:station:USF.COMPS:ANM:1,2011-07-01T03:24:00Z,27.5400,-82.7400,-0.129,1111122 
COMPS,ioos:station:USF.COMPS:ANM:1,2011-07-01T03:30:00Z,27.5400,-82.7400,-0.119,1111122 
COMPS,ioos:station:USF.COMPS:ANM:1,2011-07-01T03:36:00Z,27.5400,-82.7400,-0.116,1111122 
COMPS,ioos:station:USF.COMPS:ANM:1,2011-07-01T03:42:00Z,27.5400,-82.7400,-0.115,1111122 
COMPS,ioos:station:USF.COMPS:ANM:1,2011-07-01T03:48:00Z,27.5400,-82.7400,-0.123,1111122 
COMPS,ioos:station:USF.COMPS:ANM:1,2011-07-01T03:54:00Z,27.5400,-82.7400,-0.115,1111122 
COMPS,ioos:station:USF.COMPS:ANM:1,2011-07-01T04:00:00Z,27.5400,-82.7400,-0.091,1111122 
COMPS,ioos:station:USF.COMPS:ANM:1,2011-07-01T04:06:00Z,27.5400,-82.7400,-0.081,1111122 
COMPS,ioos:station:USF.COMPS:ANM:1,2011-07-01T04:12:00Z,27.5400,-82.7400,-0.068,1111122 
COMPS,ioos:station:USF.COMPS:ANM:1,2011-07-01T04:18:00Z,27.5400,-82.7400,-0.064,1111122 
COMPS,ioos:station:USF.COMPS:ANM:1,2011-07-01T04:24:00Z,27.5400,-82.7400,-0.055,1111122 
COMPS,ioos:station:USF.COMPS:ANM:1,2011-07-01T04:30:00Z,27.5400,-82.7400,-0.058,1111122 
COMPS,ioos:station:USF.COMPS:ANM:1,2011-07-01T04:36:00Z,27.5400,-82.7400,-0.048,1111122 
COMPS,ioos:station:USF.COMPS:ANM:1,2011-07-01T04:42:00Z,27.5400,-82.7400,-0.038,1111122 
COMPS,ioos:station:USF.COMPS:ANM:1,2011-07-01T04:48:00Z,27.5400,-82.7400,-0.04,1111122 
COMPS,ioos:station:USF.COMPS:ANM:1,2011-07-01T04:54:00Z,27.5400,-82.7400,-0.027,1111122 
COMPS,ioos:station:USF.COMPS:ANM:1,2011-07-01T05:00:00Z,27.5400,-82.7400,-0.012,1111122 
COMPS,ioos:station:USF.COMPS:ANM:1,2011-07-01T05:06:00Z,27.5400,-82.7400,-0.006,1111122 
COMPS,ioos:station:USF.COMPS:ANM:1,2011-07-01T05:12:00Z,27.5400,-82.7400,0.012,1111122 
COMPS,ioos:station:USF.COMPS:ANM:1,2011-07-01T05:18:00Z,27.5400,-82.7400,0.017,1111122 
COMPS,ioos:station:USF.COMPS:ANM:1,2011-07-01T05:24:00Z,27.5400,-82.7400,0.01,1111122 
COMPS,ioos:station:USF.COMPS:ANM:1,2011-07-01T05:30:00Z,27.5400,-82.7400,0.012,1111122 
COMPS,ioos:station:USF.COMPS:ANM:1,2011-07-01T05:36:00Z,27.5400,-82.7400,0.022,1111122 
COMPS,ioos:station:USF.COMPS:ANM:1,2011-07-01T05:42:00Z,27.5400,-82.7400,0.023,1111122 
COMPS,ioos:station:USF.COMPS:ANM:1,2011-07-01T05:48:00Z,27.5400,-82.7400,0.018,1111122 
COMPS,ioos:station:USF.COMPS:ANM:1,2011-07-01T05:54:00Z,27.5400,-82.7400,0.024,1111122 
COMPS,ioos:station:USF.COMPS:ANM:1,2011-07-01T06:00:00Z,27.5400,-82.7400,0.023,1111122 
COMPS,ioos:station:USF.COMPS:ANM:1,2011-07-01T06:06:00Z,27.5400,-82.7400,0.025,1111122 
COMPS,ioos:station:USF.COMPS:ANM:1,2011-07-01T06:12:00Z,27.5400,-82.7400,0.029,1111122 
COMPS,ioos:station:USF.COMPS:ANM:1,2011-07-01T06:18:00Z,27.5400,-82.7400,0.03,1111122 
COMPS,ioos:station:USF.COMPS:ANM:1,2011-07-01T06:24:00Z,27.5400,-82.7400,0.021,1111122 
COMPS,ioos:station:USF.COMPS:ANM:1,2011-07-01T06:30:00Z,27.5400,-82.7400,0.016,1111122 
COMPS,ioos:station:USF.COMPS:ANM:1,2011-07-01T06:36:00Z,27.5400,-82.7400,0.036,1111122 
COMPS,ioos:station:USF.COMPS:ANM:1,2011-07-01T06:42:00Z,27.5400,-82.7400,0.027,1111122 
COMPS,ioos:station:USF.COMPS:ANM:1,2011-07-01T06:48:00Z,27.5400,-82.7400,0.017,1111122 
COMPS,ioos:station:USF.COMPS:ANM:1,2011-07-01T06:54:00Z,27.5400,-82.7400,0.011,1111122 
COMPS,ioos:station:USF.COMPS:ANM:1,2011-07-01T07:00:00Z,27.5400,-82.7400,0.005,1111122 
COMPS,ioos:station:USF.COMPS:ANM:1,2011-07-01T07:06:00Z,27.5400,-82.7400,-0.016,1111122 
COMPS,ioos:station:USF.COMPS:ANM:1,2011-07-01T07:12:00Z,27.5400,-82.7400,-0.033,1111122 
COMPS,ioos:station:USF.COMPS:ANM:1,2011-07-01T07:18:00Z,27.5400,-82.7400,-0.036,1111122 
COMPS,ioos:station:USF.COMPS:ANM:1,2011-07-01T07:24:00Z,27.5400,-82.7400,-0.056,1111122 
COMPS,ioos:station:USF.COMPS:ANM:1,2011-07-01T07:30:00Z,27.5400,-82.7400,-0.071,1111122 
COMPS,ioos:station:USF.COMPS:ANM:1,2011-07-01T07:36:00Z,27.5400,-82.7400,-0.075,1111122 
COMPS,ioos:station:USF.COMPS:ANM:1,2011-07-01T07:42:00Z,27.5400,-82.7400,-0.068,1111122 
COMPS,ioos:station:USF.COMPS:ANM:1,2011-07-01T07:48:00Z,27.5400,-82.7400,-0.072,1111122 
COMPS,ioos:station:USF.COMPS:ANM:1,2011-07-01T07:54:00Z,27.5400,-82.7400,-0.081,1111122 
COMPS,ioos:station:USF.COMPS:ANM:1,2011-07-01T08:00:00Z,27.5400,-82.7400,-0.076,1111122 
COMPS,ioos:station:USF.COMPS:ANM:1,2011-07-01T08:06:00Z,27.5400,-82.7400,-0.056,1111122 
COMPS,ioos:station:USF.COMPS:ANM:1,2011-07-01T08:12:00Z,27.5400,-82.7400,-0.061,1111122 
COMPS,ioos:station:USF.COMPS:ANM:1,2011-07-01T08:18:00Z,27.5400,-82.7400,-0.049,1111122 
COMPS,ioos:station:USF.COMPS:ANM:1,2011-07-01T08:24:00Z,27.5400,-82.7400,-0.028,1111122 
COMPS,ioos:station:USF.COMPS:ANM:1,2011-07-01T08:30:00Z,27.5400,-82.7400,-0.017,1111122 
COMPS,ioos:station:USF.COMPS:ANM:1,2011-07-01T08:36:00Z,27.5400,-82.7400,-0.025,1111122 
COMPS,ioos:station:USF.COMPS:ANM:1,2011-07-01T08:42:00Z,27.5400,-82.7400,-0.025,1111122 
COMPS,ioos:station:USF.COMPS:ANM:1,2011-07-01T08:48:00Z,27.5400,-82.7400,-0.011,1111122 
COMPS,ioos:station:USF.COMPS:ANM:1,2011-07-01T08:54:00Z,27.5400,-82.7400,-0.001,1111122 
COMPS,ioos:station:USF.COMPS:ANM:1,2011-07-01T09:00:00Z,27.5400,-82.7400,-0.002,1111122 
COMPS,ioos:station:USF.COMPS:ANM:1,2011-07-01T09:06:00Z,27.5400,-82.7400,-0.002,1111122 
COMPS,ioos:station:USF.COMPS:ANM:1,2011-07-01T09:12:00Z,27.5400,-82.7400,-0.005,1111122 
COMPS,ioos:station:USF.COMPS:ANM:1,2011-07-01T09:18:00Z,27.5400,-82.7400,-0.004,1111122 
COMPS,ioos:station:USF.COMPS:ANM:1,2011-07-01T09:24:00Z,27.5400,-82.7400,-0.016,1111122 
COMPS,ioos:station:USF.COMPS:ANM:1,2011-07-01T09:30:00Z,27.5400,-82.7400,-0.034,1111122 
COMPS,ioos:station:USF.COMPS:ANM:1,2011-07-01T09:36:00Z,27.5400,-82.7400,-0.048,1111122 
COMPS,ioos:station:USF.COMPS:ANM:1,2011-07-01T09:42:00Z,27.5400,-82.7400,-0.046,1111122 
COMPS,ioos:station:USF.COMPS:ANM:1,2011-07-01T09:48:00Z,27.5400,-82.7400,-0.041,1111122 
COMPS,ioos:station:USF.COMPS:ANM:1,2011-07-01T09:54:00Z,27.5400,-82.7400,-0.044,1111122 
COMPS,ioos:station:USF.COMPS:ANM:1,2011-07-01T10:00:00Z,27.5400,-82.7400,-0.052,1111122 
COMPS,ioos:station:USF.COMPS:ANM:1,2011-07-01T10:06:00Z,27.5400,-82.7400,-0.049,1111122 
COMPS,ioos:station:USF.COMPS:ANM:1,2011-07-01T10:12:00Z,27.5400,-82.7400,-0.048,1111122 
COMPS,ioos:station:USF.COMPS:ANM:1,2011-07-01T10:18:00Z,27.5400,-82.7400,-0.048,1111122 
COMPS,ioos:station:USF.COMPS:ANM:1,2011-07-01T10:24:00Z,27.5400,-82.7400,-0.05,1111122 
COMPS,ioos:station:USF.COMPS:ANM:1,2011-07-01T10:30:00Z,27.5400,-82.7400,-0.052,1111122 
COMPS,ioos:station:USF.COMPS:ANM:1,2011-07-01T10:36:00Z,27.5400,-82.7400,-0.043,1111122 
COMPS,ioos:station:USF.COMPS:ANM:1,2011-07-01T10:42:00Z,27.5400,-82.7400,-0.039,1111122 
COMPS,ioos:station:USF.COMPS:ANM:1,2011-07-01T10:48:00Z,27.5400,-82.7400,-0.033,1111122 
COMPS,ioos:station:USF.COMPS:ANM:1,2011-07-01T10:54:00Z,27.5400,-82.7400,-0.022,1111122 
COMPS,ioos:station:USF.COMPS:ANM:1,2011-07-01T11:00:00Z,27.5400,-82.7400,-0.009,1111122 
COMPS,ioos:station:USF.COMPS:ANM:1,2011-07-01T11:06:00Z,27.5400,-82.7400,0.002,1111122 
COMPS,ioos:station:USF.COMPS:ANM:1,2011-07-01T11:12:00Z,27.5400,-82.7400,0.01,1111122 
COMPS,ioos:station:USF.COMPS:ANM:1,2011-07-01T11:18:00Z,27.5400,-82.7400,0.009,1111122 
COMPS,ioos:station:USF.COMPS:ANM:1,2011-07-01T11:24:00Z,27.5400,-82.7400,0.015,1111122 
COMPS,ioos:station:USF.COMPS:ANM:1,2011-07-01T11:30:00Z,27.5400,-82.7400,0.016,1111122 
COMPS,ioos:station:USF.COMPS:ANM:1,2011-07-01T11:36:00Z,27.5400,-82.7400,0.026,1111122 
COMPS,ioos:station:USF.COMPS:ANM:1,2011-07-01T11:42:00Z,27.5400,-82.7400,0.033,1111122 
COMPS,ioos:station:USF.COMPS:ANM:1,2011-07-01T11:48:00Z,27.5400,-82.7400,0.048,1111122 
COMPS,ioos:station:USF.COMPS:ANM:1,2011-07-01T11:54:00Z,27.5400,-82.7400,0.064,1111122 
COMPS,ioos:station:USF.COMPS:ANM:1,2011-07-01T12:00:00Z,27.5400,-82.7400,0.086,1111122 
COMPS,ioos:station:USF.COMPS:ANM:1,2011-07-01T12:06:00Z,27.5400,-82.7400,0.099,1111122 
COMPS,ioos:station:USF.COMPS:ANM:1,2011-07-01T12:12:00Z,27.5400,-82.7400,0.078,1111122 
COMPS,ioos:station:USF.COMPS:ANM:1,2011-07-01T12:18:00Z,27.5400,-82.7400,0.085,1111122 
COMPS,ioos:station:USF.COMPS:ANM:1,2011-07-01T12:24:00Z,27.5400,-82.7400,0.097,1111122 
COMPS,ioos:station:USF.COMPS:ANM:1,2011-07-01T12:30:00Z,27.5400,-82.7400,0.118,1111122 
COMPS,ioos:station:USF.COMPS:ANM:1,2011-07-01T12:36:00Z,27.5400,-82.7400,0.115,1111122 
COMPS,ioos:station:USF.COMPS:ANM:1,2011-07-01T12:42:00Z,27.5400,-82.7400,0.131,1111122 
COMPS,ioos:station:USF.COMPS:ANM:1,2011-07-01T12:48:00Z,27.5400,-82.7400,0.145,1111122 
COMPS,ioos:station:USF.COMPS:ANM:1,2011-07-01T12:54:00Z,27.5400,-82.7400,0.153,1111122 
COMPS,ioos:station:USF.COMPS:ANM:1,2011-07-01T13:00:00Z,27.5400,-82.7400,0.173,1111122 
COMPS,ioos:station:USF.COMPS:ANM:1,2011-07-01T13:06:00Z,27.5400,-82.7400,0.177,1111122 
COMPS,ioos:station:USF.COMPS:ANM:1,2011-07-01T13:12:00Z,27.5400,-82.7400,0.19,1111122 
COMPS,ioos:station:USF.COMPS:ANM:1,2011-07-01T13:18:00Z,27.5400,-82.7400,0.202,1111122 
COMPS,ioos:station:USF.COMPS:ANM:1,2011-07-01T13:24:00Z,27.5400,-82.7400,0.218,1111122 
COMPS,ioos:station:USF.COMPS:ANM:1,2011-07-01T13:30:00Z,27.5400,-82.7400,0.228,1111122 
COMPS,ioos:station:USF.COMPS:ANM:1,2011-07-01T13:36:00Z,27.5400,-82.7400,0.242,1111122 
COMPS,ioos:station:USF.COMPS:ANM:1,2011-07-01T13:42:00Z,27.5400,-82.7400,0.251,1111122 
COMPS,ioos:station:USF.COMPS:ANM:1,2011-07-01T13:48:00Z,27.5400,-82.7400,0.26,1111122 
COMPS,ioos:station:USF.COMPS:ANM:1,2011-07-01T13:54:00Z,27.5400,-82.7400,0.275,1111122 
COMPS,ioos:station:USF.COMPS:ANM:1,2011-07-01T14:00:00Z,27.5400,-82.7400,0.284,1111122 
COMPS,ioos:station:USF.COMPS:ANM:1,2011-07-01T14:06:00Z,27.5400,-82.7400,0.286,1111122 
COMPS,ioos:station:USF.COMPS:ANM:1,2011-07-01T14:12:00Z,27.5400,-82.7400,0.285,1111122 
COMPS,ioos:station:USF.COMPS:ANM:1,2011-07-01T14:18:00Z,27.5400,-82.7400,0.289,1111122 
COMPS,ioos:station:USF.COMPS:ANM:1,2011-07-01T14:24:00Z,27.5400,-82.7400,0.297,1111122 
COMPS,ioos:station:USF.COMPS:ANM:1,2011-07-01T14:30:00Z,27.5400,-82.7400,0.319,1111122 
COMPS,ioos:station:USF.COMPS:ANM:1,2011-07-01T14:36:00Z,27.5400,-82.7400,0.32,1111122 
COMPS,ioos:station:USF.COMPS:ANM:1,2011-07-01T14:42:00Z,27.5400,-82.7400,0.323,1111122 
COMPS,ioos:station:USF.COMPS:ANM:1,2011-07-01T14:48:00Z,27.5400,-82.7400,0.33,1111122 
COMPS,ioos:station:USF.COMPS:ANM:1,2011-07-01T14:54:00Z,27.5400,-82.7400,0.344,1111122 
COMPS,ioos:station:USF.COMPS:ANM:1,2011-07-01T15:00:00Z,27.5400,-82.7400,0.335,1111122 
COMPS,ioos:station:USF.COMPS:ANM:1,2011-07-01T15:06:00Z,27.5400,-82.7400,0.341,1111122 
COMPS,ioos:station:USF.COMPS:ANM:1,2011-07-01T15:12:00Z,27.5400,-82.7400,0.346,1111122 
COMPS,ioos:station:USF.COMPS:ANM:1,2011-07-01T15:18:00Z,27.5400,-82.7400,0.351,1111122 
COMPS,ioos:station:USF.COMPS:ANM:1,2011-07-01T15:24:00Z,27.5400,-82.7400,0.354,1111122 
COMPS,ioos:station:USF.COMPS:ANM:1,2011-07-01T15:30:00Z,27.5400,-82.7400,0.348,1111122 
COMPS,ioos:station:USF.COMPS:ANM:1,2011-07-01T15:36:00Z,27.5400,-82.7400,0.343,1111122 
COMPS,ioos:station:USF.COMPS:ANM:1,2011-07-01T15:42:00Z,27.5400,-82.7400,0.339,1111122 
COMPS,ioos:station:USF.COMPS:ANM:1,2011-07-01T15:48:00Z,27.5400,-82.7400,0.353,1111122 
COMPS,ioos:station:USF.COMPS:ANM:1,2011-07-01T15:54:00Z,27.5400,-82.7400,0.351,1111122 
COMPS,ioos:station:USF.COMPS:ANM:1,2011-07-01T16:00:00Z,27.5400,-82.7400,0.359,1111122 
COMPS,ioos:station:USF.COMPS:ANM:1,2011-07-01T16:06:00Z,27.5400,-82.7400,0.341,1111122 
COMPS,ioos:station:USF.COMPS:ANM:1,2011-07-01T16:12:00Z,27.5400,-82.7400,0.346,1111122 
COMPS,ioos:station:USF.COMPS:ANM:1,2011-07-01T16:18:00Z,27.5400,-82.7400,0.354,1111122 
COMPS,ioos:station:USF.COMPS:ANM:1,2011-07-01T16:24:00Z,27.5400,-82.7400,0.346,1111122 
COMPS,ioos:station:USF.COMPS:ANM:1,2011-07-01T16:30:00Z,27.5400,-82.7400,0.333,1111122 
COMPS,ioos:station:USF.COMPS:ANM:1,2011-07-01T16:36:00Z,27.5400,-82.7400,0.329,1111122 
COMPS,ioos:station:USF.COMPS:ANM:1,2011-07-01T16:42:00Z,27.5400,-82.7400,0.327,1111122 
COMPS,ioos:station:USF.COMPS:ANM:1,2011-07-01T16:48:00Z,27.5400,-82.7400,0.322,1111122 
COMPS,ioos:station:USF.COMPS:ANM:1,2011-07-01T16:54:00Z,27.5400,-82.7400,0.325,1111122 
COMPS,ioos:station:USF.COMPS:ANM:1,2011-07-01T17:00:00Z,27.5400,-82.7400,0.325,1111122 
COMPS,ioos:station:USF.COMPS:ANM:1,2011-07-01T17:06:00Z,27.5400,-82.7400,0.331,1111122 
COMPS,ioos:station:USF.COMPS:ANM:1,2011-07-01T17:12:00Z,27.5400,-82.7400,0.325,1111122 
COMPS,ioos:station:USF.COMPS:ANM:1,2011-07-01T17:18:00Z,27.5400,-82.7400,0.311,1111122 
COMPS,ioos:station:USF.COMPS:ANM:1,2011-07-01T17:24:00Z,27.5400,-82.7400,0.311,1111122 
COMPS,ioos:station:USF.COMPS:ANM:1,2011-07-01T17:30:00Z,27.5400,-82.7400,0.296,1111122 
COMPS,ioos:station:USF.COMPS:ANM:1,2011-07-01T17:36:00Z,27.5400,-82.7400,0.279,1111122 
COMPS,ioos:station:USF.COMPS:ANM:1,2011-07-01T17:42:00Z,27.5400,-82.7400,0.261,1111122 
COMPS,ioos:station:USF.COMPS:ANM:1,2011-07-01T17:48:00Z,27.5400,-82.7400,0.255,1111122 
COMPS,ioos:station:USF.COMPS:ANM:1,2011-07-01T17:54:00Z,27.5400,-82.7400,0.26,1111122 
COMPS,ioos:station:USF.COMPS:ANM:1,2011-07-01T18:00:00Z,27.5400,-82.7400,0.253,1111122 
COMPS,ioos:station:USF.COMPS:ANM:1,2011-07-01T18:06:00Z,27.5400,-82.7400,0.236,1111122 
COMPS,ioos:station:USF.COMPS:ANM:1,2011-07-01T18:12:00Z,27.5400,-82.7400,0.231,1111122 
COMPS,ioos:station:USF.COMPS:ANM:1,2011-07-01T18:18:00Z,27.5400,-82.7400,0.225,1111122 
COMPS,ioos:station:USF.COMPS:ANM:1,2011-07-01T18:24:00Z,27.5400,-82.7400,0.214,1111122 
COMPS,ioos:station:USF.COMPS:ANM:1,2011-07-01T18:30:00Z,27.5400,-82.7400,0.192,1111122 
COMPS,ioos:station:USF.COMPS:ANM:1,2011-07-01T18:36:00Z,27.5400,-82.7400,0.172,1111122 
COMPS,ioos:station:USF.COMPS:ANM:1,2011-07-01T18:42:00Z,27.5400,-82.7400,0.154,1111122 
COMPS,ioos:station:USF.COMPS:ANM:1,2011-07-01T18:48:00Z,27.5400,-82.7400,0.149,1111122 
COMPS,ioos:station:USF.COMPS:ANM:1,2011-07-01T18:54:00Z,27.5400,-82.7400,0.127,1111122 
COMPS,ioos:station:USF.COMPS:ANM:1,2011-07-01T19:00:00Z,27.5400,-82.7400,0.103,1111122 
COMPS,ioos:station:USF.COMPS:ANM:1,2011-07-01T19:06:00Z,27.5400,-82.7400,0.084,1111122 
COMPS,ioos:station:USF.COMPS:ANM:1,2011-07-01T19:12:00Z,27.5400,-82.7400,0.065,1111122 
COMPS,ioos:station:USF.COMPS:ANM:1,2011-07-01T19:18:00Z,27.5400,-82.7400,0.048,1111122 
COMPS,ioos:station:USF.COMPS:ANM:1,2011-07-01T19:24:00Z,27.5400,-82.7400,0.036,1111122 
COMPS,ioos:station:USF.COMPS:ANM:1,2011-07-01T19:30:00Z,27.5400,-82.7400,0.011,1111122 
COMPS,ioos:station:USF.COMPS:ANM:1,2011-07-01T19:36:00Z,27.5400,-82.7400,-0.016,1111122 
COMPS,ioos:station:USF.COMPS:ANM:1,2011-07-01T19:42:00Z,27.5400,-82.7400,-0.039,1111122 
COMPS,ioos:station:USF.COMPS:ANM:1,2011-07-01T19:48:00Z,27.5400,-82.7400,-0.052,1111122 
COMPS,ioos:station:USF.COMPS:ANM:1,2011-07-01T19:54:00Z,27.5400,-82.7400,-0.068,1111122 
COMPS,ioos:station:USF.COMPS:ANM:1,2011-07-01T20:00:00Z,27.5400,-82.7400,-0.095,1111122 
COMPS,ioos:station:USF.COMPS:ANM:1,2011-07-01T20:06:00Z,27.5400,-82.7400,-0.127,1111122 
COMPS,ioos:station:USF.COMPS:ANM:1,2011-07-01T20:12:00Z,27.5400,-82.7400,-0.155,1111122 
COMPS,ioos:station:USF.COMPS:ANM:1,2011-07-01T20:18:00Z,27.5400,-82.7400,-0.171,1111122 
COMPS,ioos:station:USF.COMPS:ANM:1,2011-07-01T20:24:00Z,27.5400,-82.7400,-0.182,1111122 
COMPS,ioos:station:USF.COMPS:ANM:1,2011-07-01T20:30:00Z,27.5400,-82.7400,-0.199,1111122 
COMPS,ioos:station:USF.COMPS:ANM:1,2011-07-01T20:36:00Z,27.5400,-82.7400,-0.225,1111122 
COMPS,ioos:station:USF.COMPS:ANM:1,2011-07-01T20:42:00Z,27.5400,-82.7400,-0.251,1111122 
COMPS,ioos:station:USF.COMPS:ANM:1,2011-07-01T20:48:00Z,27.5400,-82.7400,-0.257,1111122 
COMPS,ioos:station:USF.COMPS:ANM:1,2011-07-01T20:54:00Z,27.5400,-82.7400,-0.265,1111122 
COMPS,ioos:station:USF.COMPS:ANM:1,2011-07-01T21:00:00Z,27.5400,-82.7400,-0.288,1111122 
COMPS,ioos:station:USF.COMPS:ANM:1,2011-07-01T21:06:00Z,27.5400,-82.7400,-0.309,1111122 
COMPS,ioos:station:USF.COMPS:ANM:1,2011-07-01T21:12:00Z,27.5400,-82.7400,-0.329,1111122 
COMPS,ioos:station:USF.COMPS:ANM:1,2011-07-01T21:18:00Z,27.5400,-82.7400,-0.343,1111122 
COMPS,ioos:station:USF.COMPS:ANM:1,2011-07-01T21:24:00Z,27.5400,-82.7400,-0.36,1111122 
COMPS,ioos:station:USF.COMPS:ANM:1,2011-07-01T21:30:00Z,27.5400,-82.7400,-0.379,1111122 
COMPS,ioos:station:USF.COMPS:ANM:1,2011-07-01T21:36:00Z,27.5400,-82.7400,-0.392,1111122 
COMPS,ioos:station:USF.COMPS:ANM:1,2011-07-01T21:42:00Z,27.5400,-82.7400,-0.408,1111122 
COMPS,ioos:station:USF.COMPS:ANM:1,2011-07-01T21:48:00Z,27.5400,-82.7400,-0.42,1111122 
COMPS,ioos:station:USF.COMPS:ANM:1,2011-07-01T21:54:00Z,27.5400,-82.7400,-0.43,1111122 
COMPS,ioos:station:USF.COMPS:ANM:1,2011-07-01T22:00:00Z,27.5400,-82.7400,-0.435,1111122 
COMPS,ioos:station:USF.COMPS:ANM:1,2011-07-01T22:06:00Z,27.5400,-82.7400,-0.451,1111122 
COMPS,ioos:station:USF.COMPS:ANM:1,2011-07-01T22:12:00Z,27.5400,-82.7400,-0.46,1111122 
COMPS,ioos:station:USF.COMPS:ANM:1,2011-07-01T22:18:00Z,27.5400,-82.7400,-0.465,1111122 
COMPS,ioos:station:USF.COMPS:ANM:1,2011-07-01T22:24:00Z,27.5400,-82.7400,-0.478,1111122 
COMPS,ioos:station:USF.COMPS:ANM:1,2011-07-01T22:30:00Z,27.5400,-82.7400,-0.489,1111122 
COMPS,ioos:station:USF.COMPS:ANM:1,2011-07-01T22:36:00Z,27.5400,-82.7400,-0.496,1111122 
COMPS,ioos:station:USF.COMPS:ANM:1,2011-07-01T22:42:00Z,27.5400,-82.7400,-0.507,1111122 
COMPS,ioos:station:USF.COMPS:ANM:1,2011-07-01T22:48:00Z,27.5400,-82.7400,-0.509,1111122 
COMPS,ioos:station:USF.COMPS:ANM:1,2011-07-01T22:54:00Z,27.5400,-82.7400,-0.515,1111122 
COMPS,ioos:station:USF.COMPS:ANM:1,2011-07-01T23:00:00Z,27.5400,-82.7400,-0.513,1111122 
COMPS,ioos:station:USF.COMPS:ANM:1,2011-07-01T23:06:00Z,27.5400,-82.7400,-0.523,1111122 
COMPS,ioos:station:USF.COMPS:ANM:1,2011-07-01T23:12:00Z,27.5400,-82.7400,-0.524,1111122 
COMPS,ioos:station:USF.COMPS:ANM:1,2011-07-01T23:18:00Z,27.5400,-82.7400,-0.523,1111122 
COMPS,ioos:station:USF.COMPS:ANM:1,2011-07-01T23:24:00Z,27.5400,-82.7400,-0.525,1111122 
COMPS,ioos:station:USF.COMPS:ANM:1,2011-07-01T23:30:00Z,27.5400,-82.7400,-0.531,1111122 
COMPS,ioos:station:USF.COMPS:ANM:1,2011-07-01T23:36:00Z,27.5400,-82.7400,-0.535,1111122 
COMPS,ioos:station:USF.COMPS:ANM:1,2011-07-01T23:42:00Z,27.5400,-82.7400,-0.542,1111122 
COMPS,ioos:station:USF.COMPS:ANM:1,2011-07-01T23:48:00Z,27.5400,-82.7400,-0.536,1111122 
COMPS,ioos:station:USF.COMPS:ANM:1,2011-07-01T23:54:00Z,27.5400,-82.7400,-0.53,1111122 
COMPS,ioos:station:USF.COMPS:ANM:1,2011-07-02T00:00:00Z,27.5400,-82.7400,-0.53,1111122 
COMPS,ioos:station:USF.COMPS:ANM:1,2011-07-02T00:06:00Z,27.5400,-82.7400,-0.534,1111122 
COMPS,ioos:station:USF.COMPS:ANM:1,2011-07-02T00:12:00Z,27.5400,-82.7400,-0.529,1111122 
COMPS,ioos:station:USF.COMPS:ANM:1,2011-07-02T00:18:00Z,27.5400,-82.7400,-0.525,1111122 
COMPS,ioos:station:USF.COMPS:ANM:1,2011-07-02T00:24:00Z,27.5400,-82.7400,-0.514,1111122 
COMPS,ioos:station:USF.COMPS:ANM:1,2011-07-02T00:30:00Z,27.5400,-82.7400,-0.498,1111122 
COMPS,ioos:station:USF.COMPS:ANM:1,2011-07-02T00:36:00Z,27.5400,-82.7400,-0.488,1111122 
COMPS,ioos:station:USF.COMPS:ANM:1,2011-07-02T00:42:00Z,27.5400,-82.7400,-0.49,1111122 
COMPS,ioos:station:USF.COMPS:ANM:1,2011-07-02T00:48:00Z,27.5400,-82.7400,-0.481,1111122 
COMPS,ioos:station:USF.COMPS:ANM:1,2011-07-02T00:54:00Z,27.5400,-82.7400,-0.468,1111122 
COMPS,ioos:station:USF.COMPS:ANM:1,2011-07-02T01:00:00Z,27.5400,-82.7400,-0.467,1111122 
COMPS,ioos:station:USF.COMPS:ANM:1,2011-07-02T01:06:00Z,27.5400,-82.7400,-0.452,1111122 
COMPS,ioos:station:USF.COMPS:ANM:1,2011-07-02T01:12:00Z,27.5400,-82.7400,-0.432,1111122 
COMPS,ioos:station:USF.COMPS:ANM:1,2011-07-02T01:18:00Z,27.5400,-82.7400,-0.425,1111122 
COMPS,ioos:station:USF.COMPS:ANM:1,2011-07-02T01:24:00Z,27.5400,-82.7400,-0.411,1111122 
COMPS,ioos:station:USF.COMPS:ANM:1,2011-07-02T01:30:00Z,27.5400,-82.7400,-0.392,1111122 
COMPS,ioos:station:USF.COMPS:ANM:1,2011-07-02T01:36:00Z,27.5400,-82.7400,-0.377,1111122 
COMPS,ioos:station:USF.COMPS:ANM:1,2011-07-02T01:42:00Z,27.5400,-82.7400,-0.367,1111122 
COMPS,ioos:station:USF.COMPS:ANM:1,2011-07-02T01:48:00Z,27.5400,-82.7400,-0.355,1111122 
COMPS,ioos:station:USF.COMPS:ANM:1,2011-07-02T01:54:00Z,27.5400,-82.7400,-0.345,1111122 
COMPS,ioos:station:USF.COMPS:ANM:1,2011-07-02T02:00:00Z,27.5400,-82.7400,-0.345,1111122 
COMPS,ioos:station:USF.COMPS:ANM:1,2011-07-02T02:06:00Z,27.5400,-82.7400,-0.334,1111122 
COMPS,ioos:station:USF.COMPS:ANM:1,2011-07-02T02:12:00Z,27.5400,-82.7400,-0.31,1111122 
COMPS,ioos:station:USF.COMPS:ANM:1,2011-07-02T02:18:00Z,27.5400,-82.7400,-0.291,1111122 
COMPS,ioos:station:USF.COMPS:ANM:1,2011-07-02T02:24:00Z,27.5400,-82.7400,-0.281,1111122 
COMPS,ioos:station:USF.COMPS:ANM:1,2011-07-02T02:30:00Z,27.5400,-82.7400,-0.271,1111122 
COMPS,ioos:station:USF.COMPS:ANM:1,2011-07-02T02:36:00Z,27.5400,-82.7400,-0.261,1111122 
COMPS,ioos:station:USF.COMPS:ANM:1,2011-07-02T02:42:00Z,27.5400,-82.7400,-0.24,1111122 
COMPS,ioos:station:USF.COMPS:ANM:1,2011-07-02T02:48:00Z,27.5400,-82.7400,-0.223,1111122 
COMPS,ioos:station:USF.COMPS:ANM:1,2011-07-02T02:54:00Z,27.5400,-82.7400,-0.212,1111122 